Temperature
7 7 7 6 6 6 5 5 5 4 4 4 4 3 3 3 3 2 2 1 1 1 1 0 0 -0 -0 -1 -1 -1 -1 -1 -1 -1 -1 -1 -1 -1 -1 -1 -1 -1 -1
7 7 6 6 6 5 5 4 4 4 4 3 3 3 2 2 2 1 1 0 -0 -0 -1 -1 -1 -1 -2 -2 -2 -2 -2 -2 -2 -2 -2 -2 -2 -2 -2 -2 -2 -2 -2
6 6 6 5 5 5 4 4 4 3 3 3 2 2 2 1 1 0 -0 -1 -1 -1 -2 -2 -2 -3 -3 -3 -3 -4 -4 -4 -3 -3 -3 -3 -3 -3 -3 -3 -2 -2 -2
6 6 5 5 4 4 4 3 3 3 2 2 2 1 1 0 -0 -0 -1 -2 -2 -2 -3 -3 -4 -4 -4 -4 -4 -4 -4 -4 -4 -4 -4 -4 -4 -3 -3 -3 -3 -3 -3
5 5 5 4 4 3 3 3 2 2 2 1 1 0 -0 -1 -1 -1 -2 -3 -3 -3 -3 -4 -4 -4 -5 -5 -4 -4 -4 -4 -4 -4 -4 -4 -4 -3 -3 -3 -3 -3 -3
5 4 4 3 3 3 2 2 2 1 1 0 -0 -1 -1 -1 -2 -2 -3 -3 -4 -4 -4 -4 -5 -5 -5 -5 -5 -4 -4 -4 -4 -4 -3 -3 -4 -4 -4 -4 -4 -4 -4
4 4 3 3 2 2 2 1 1 0 -0 -1 -1 -1 -2 -2 -2 -3 -4 -4 -4 -4 -5 -5 -5 -5 -5 -5 -5 -5 -4 -4 -4 -4 -4 -4 -4 -4 -4 -4 -4 -4 -4
4 3 3 2 2 1 1 1 0 -0 -1 -1 -2 -2 -2 -3 -3 -4 -4 -5 -5 -5 -5 -5 -5 -5 -5 -5 -5 -5 -4 -4 -4 -4 -4 -4 -4 -4 -4 -4 -4 -4 -4
3 2 2 1 1 1 0 -0 -1 -1 -2 -2 -2 -3 -3 -3 -4 -5 -5 -5 -5 -5 -5 -5 -5 -6 -5 -5 -5 -5 -5 -4 -4 -4 -4 -4 -4 -4 -4 -4 -4 -4 -4
2 2 1 1 0 -0 -1 -1 -1 -2 -2 -3 -3 -3 -4 -4 -5 -5 -5 -5 -5 -5 -5 -6 -6 -6 -6 -5 -5 -5 -5 -5 -5 -5 -4 -4 -4 -4 -4 -4 -4 -4 -4
1 1 1 0 -0 -1 -1 -2 -2 -2 -3 -3 -4 -4 -5 -5 -5 -6 -6 -6 -6 -6 -6 -6 -6 -6 -6 -6 -5 -5 -5 -5 -5 -5 -5 -5 -5 -5 -4 -4 -4 -4 -5
1 1 0 -0 -1 -1 -2 -2 -2 -3 -3 -4 -4 -5 -5 -6 -6 -6 -6 -6 -6 -6 -6 -6 -6 -6 -6 -6 -6 -6 -5 -5 -5 -5 -5 -5 -5 -5 -5 -5 -5 -5 -5
0 -0 -0 -1 -1 -2 -2 -3 -3 -4 -4 -4 -5 -6 -6 -6 -6 -7 -7 -7 -7 -6 -7 -7 -7 -6 -6 -6 -6 -6 -6 -6 -6 -6 -6 -6 -6 -6 -6 -5 -5 -5 -5
-1 -1 -1 -2 -2 -2 -3 -3 -4 -4 -5 -5 -6 -6 -6 -6 -7 -7 -7 -7 -7 -7 -7 -7 -7 -7 -7 -7 -7 -6 -6 -7 -7 -7 -7 -6 -6 -6 -6 -6 -6 -6 -6
-1 -1 -2 -2 -3 -3 -3 -4 -5 -5 -6 -6 -6 -6 -7 -7 -7 -7 -7 -6 -7 -7 -7 -7 -7 -7 -7 -7 -7 -7 -7 -7 -7 -7 -7 -7 -7 -7 -6 -6 -6 -6 -6
-2 -2 -2 -3 -3 -4 -4 -4 -5 -6 -6 -6 -7 -7 -7 -7 -7 -7 -7 -7 -7 -7 -7 -7 -7 -8 -8 -8 -8 -8 -8 -8 -8 -8 -7 -7 -7 -7 -7 -7 -7 -6 -6
-3 -3 -3 -3 -4 -4 -5 -6 -6 -6 -6 -7 -7 -7 -7 -7 -7 -7 -7 -7 -7 -7 -8 -8 -8 -8 -8 -8 -8 -8 -8 -8 -8 -8 -8 -8 -8 -7 -7 -7 -7 -7 -7
-3 -3 -4 -4 -5 -5 -6 -6 -7 -7 -7 -7 -7 -7 -8 -8 -8 -8 -8 -8 -8 -8 -8 -8 -8 -8 -8 -8 -8 -8 -8 -8 -8 -8 -8 -8 -8 -8 -8 -8 -8 -7 -7
-4 -4 -4 -5 -5 -6 -6 -7 -7 -7 -8 -8 -8 -8 -8 -8 -8 -8 -8 -8 -8 -8 -8 -8 -8 -8 -8 -8 -9 -9 -9 -9 -9 -9 -8 -8 -8 -8 -8 -8 -8 -8 -8
-4 -5 -5 -6 -6 -7 -7 -7 -8 -8 -8 -8 -8 -8 -9 -9 -9 -8 -9 -9 -9 -9 -9 -9 -9 -9 -9 -9 -9 -9 -9 -9 -9 -9 -9 -9 -9 -9 -9 -9 -8 -8 -8
-5 -5 -6 -7 -7 -7 -8 -8 -8 -8 -8 -9 -9 -9 -9 -9 -9 -9 -9 -9 -9 -9 -9 -9 -9 -9 -9 -9 -9 -9 -9 -9 -9 -9 -9 -9 -9 -9 -9 -9 -9 -9 -9
-6 -6 -7 -7 -8 -8 -8 -8 -8 -8 -9 -9 -9 -9 -9 -9 -10 -10 -10 -9 -9 -9 -9 -9 -9 -9 -9 -9 -9 -9 -9 -9 -9 -9 -9 -9 -9 -9 -9 -9 -9 -9 -9
-7 -7 -7 -8 -8 -8 -8 -9 -9 -9 -9 -10 -10 -10 -10 -10 -10 -10 -10 -10 -10 -9 -9 -9 -9 -9 -9 -9 -9 -9 -10 -9 -9 -10 -10 -10 -10 -10 -10 -10 -9 -9 -9
-7 -8 -8 -8 -9 -9 -9 -9 -9 -10 -10 -10 -10 -10 -10 -10 -10 -10 -10 -10 -10 -10 -9 -9 -9 -9 -9 -9 -9 -9 -9 -9 -10 -10 -10 -10 -10 -10 -10 -10 -10 -10 -10
-8 -8 -9 -9 -9 -9 -10 -10 -10 -10 -10 -11 -11 -11 -11 -11 -11 -11 -10 -10 -10 -10 -10 -9 -9 -9 -9 -9 -9 -9 -9 -9 -10 -10 -10 -10 -10 -10 -10 -10 -10 -10 -10
-8 -9 -9 -10 -10 -10 -10 -10 -11 -11 -11 -11 -11 -11 -11 -11 -11 -11 -11 -11 -10 -10 -10 -10 -9 -9 -9 -9 -9 -9 -9 -10 -10 -10 -10 -10 -10 -10 -10 -10 -10 -10 -10
Wind_Speed
2 2 3 4 4 5 5 6 6 6 7 8 8 9 9 9 9 9 9 10 10 10 10 10 10 10 8 8 8 8 9 10 18 17 8 7 9 10 12 13 16 14 16
1 2 4 4 5 5 6 7 7 7 8 8 9 9 10 10 9 9 10 10 10 10 10 10 11 11 11 9 9 10 10 10 14 21 14 8 9 10 10 12 12 14 12
1 3 4 5 6 6 7 7 7 8 9 9 9 10 10 10 10 10 10 10 10 10 10 11 12 12 14 12 12 13 12 14 12 16 18 10 9 9 11 12 13 11 14
1 3 5 6 6 7 7 7 8 9 9 10 10 10 11 11 11 11 11 11 11 11 11 12 13 14 15 15 15 14 14 14 13 15 16 13 11 9 9 10 11 9 12
3 4 6 6 6 7 7 8 9 9 10 10 11 11 11 10 10 11 10 10 11 11 12 12 14 19 23 20 17 13 13 14 14 15 16 15 12 9 10 9 12 10 10
4 5 6 6 7 7 8 9 9 10 10 11 11 11 11 11 20 25 20 12 10 11 12 12 14 18 22 27 29 27 23 17 14 14 15 15 15 12 10 10 12 13 12
5 6 7 7 7 8 8 9 10 10 10 11 11 11 11 13 24 27 26 17 12 11 12 12 15 16 22 15 21 26 25 28 27 19 17 17 16 13 12 14 14 14 14
6 7 7 7 8 8 9 10 10 9 10 10 11 11 11 14 25 27 27 17 12 12 12 13 15 15 16 18 15 15 15 16 20 16 14 16 16 14 14 15 15 15 14
7 7 7 7 8 9 10 10 10 10 10 10 10 11 11 14 23 26 27 12 11 12 12 13 15 15 23 28 20 16 16 15 20 26 27 25 27 28 23 13 11 12 13
7 7 7 8 9 10 11 11 9 9 10 11 11 10 11 12 21 26 26 10 11 11 11 12 20 22 26 28 18 15 18 16 14 15 18 20 18 19 25 15 11 13 12
7 7 8 9 9 10 10 9 10 10 11 10 11 10 10 14 20 24 26 13 11 12 12 10 11 24 28 29 26 16 21 21 14 13 12 11 10 10 11 11 10 11 12
7 8 9 9 9 9 10 10 10 10 11 11 11 11 9 11 17 20 26 25 22 14 12 11 13 26 29 29 23 22 27 22 9 9 9 9 9 8 8 8 9 10 11
8 9 9 10 9 9 9 10 9 9 9 10 10 11 11 9 12 24 26 27 27 18 13 22 26 28 27 19 21 24 19 10 8 9 9 9 7 8 7 7 7 8 10
9 9 9 9 10 9 8 8 8 8 9 10 11 12 12 10 9 9 11 14 18 16 14 18 24 24 19 18 16 12 8 8 9 8 9 8 7 7 7 7 7 6 6
9 9 9 9 9 9 9 8 10 9 12 14 12 11 14 14 15 24 20 14 12 14 15 11 8 8 8 7 7 7 7 7 8 7 7 7 8 7 7 6 6 5 6
9 9 8 8 8 9 10 11 15 17 24 26 25 23 19 23 29 29 28 27 27 25 18 9 9 9 9 9 8 8 7 7 7 7 7 7 8 8 7 6 5 5 6
9 9 8 8 9 10 10 11 14 16 20 23 25 26 26 28 29 28 27 26 24 22 11 8 9 9 9 8 8 8 8 7 7 7 7 7 7 7 6 6 5 5 5
9 11 12 9 9 9 10 10 12 15 16 12 16 23 26 27 26 26 25 21 13 11 7 9 9 8 8 8 8 8 8 7 6 7 7 7 6 6 7 6 6 6 5
9 8 9 9 9 10 11 11 12 13 14 14 12 14 21 23 24 24 21 10 10 10 9 9 8 8 8 8 8 8 8 8 8 7 7 7 6 6 6 6 6 9 7
9 17 17 12 10 11 11 12 12 13 13 13 13 12 12 14 11 11 9 8 9 10 10 9 8 8 8 8 8 8 8 8 8 7 7 7 6 6 7 7 6 6 5
9 12 19 14 11 12 12 12 13 13 13 13 13 15 22 15 12 11 11 10 9 10 10 9 9 9 8 8 7 8 9 8 8 7 7 6 6 6 6 6 6 6 6
9 9 9 11 12 12 13 12 12 13 13 14 13 15 23 14 10 11 11 11 9 9 9 9 9 8 8 8 8 8 9 9 8 7 7 7 7 7 7 6 6 6 6
9 10 11 12 12 17 16 12 12 12 13 13 13 13 13 11 11 11 12 11 9 9 9 9 10 9 8 8 8 8 9 9 8 8 8 8 8 8 7 8 8 8 7
9 11 13 13 13 13 13 12 12 13 13 13 13 13 12 11 11 13 12 11 10 10 9 9 10 11 13 11 9 8 9 10 9 9 10 10 10 9 8 8 9 9 8
10 12 13 13 13 13 13 13 13 13 13 14 13 13 13 12 12 12 11 11 11 11 12 11 9 10 13 14 13 11 16 20 19 13 10 10 11 11 10 10 10 9 10
11 13 13 12 12 12 12 13 13 13 13 14 13 12 13 13 12 12 11 11 11 11 11 10 11 12 14 13 15 18 22 22 21 21 14 10 11 11 11 10 11 11 11
Wind_Direction
35 6 340 325 322 313 302 297 298 299 301 299 296 294 292 289 287 285 283 284 283 283 283 281 278 277 276 272 268 266 264 264 277 283 269 261 259 266 274 275 277 277 276
30 337 318 312 308 303 299 301 305 305 303 300 297 294 291 290 289 287 288 289 287 288 288 290 291 294 290 288 283 278 275 271 275 283 284 273 263 265 268 268 273 273 266
356 314 307 306 306 302 302 305 307 304 300 297 296 293 292 290 287 284 282 282 281 282 285 287 288 289 286 283 280 279 278 278 274 279 284 281 273 268 269 269 266 267 268
297 292 293 294 296 297 300 301 299 297 296 294 290 288 286 285 284 283 280 279 277 276 276 278 280 279 280 280 280 275 274 273 271 272 277 279 275 265 262 267 271 262 264
280 284 282 285 290 293 294 293 291 290 290 287 286 285 283 285 284 283 280 276 275 277 278 277 277 280 281 282 280 274 269 270 271 271 273 276 275 270 266 264 270 270 263
278 279 282 285 286 286 287 287 287 286 286 286 285 285 285 290 296 300 300 291 283 283 285 283 284 286 286 286 286 286 283 278 277 276 279 277 278 274 271 269 272 274 274
279 279 281 280 282 283 287 290 288 287 286 286 286 286 286 290 300 303 303 302 291 287 286 287 290 289 291 284 284 285 285 283 282 279 278 277 278 274 271 272 270 269 270
279 280 280 283 286 287 288 287 287 285 286 287 288 288 289 295 304 305 305 301 290 285 283 283 284 284 284 285 280 276 273 273 274 275 269 269 268 266 259 262 266 269 267
283 284 288 293 293 291 289 286 286 288 289 287 287 289 291 297 303 304 303 293 288 284 282 284 288 287 288 292 291 286 284 280 281 279 277 276 274 275 272 266 260 265 269
285 286 291 293 290 289 286 286 288 288 288 289 288 288 290 293 300 304 304 296 292 291 288 284 290 293 295 296 294 289 288 286 282 280 279 278 277 275 277 270 263 266 270
285 290 291 288 286 285 285 286 287 288 289 289 290 289 288 293 302 304 304 302 294 294 295 293 289 297 298 298 298 292 289 291 285 281 280 275 270 263 259 254 247 251 259
289 289 287 285 287 291 288 288 287 290 293 294 295 294 288 291 296 300 302 302 303 300 298 295 293 299 301 301 301 296 298 301 295 290 286 283 280 277 270 258 248 244 246
288 285 285 287 286 286 287 290 293 291 290 293 293 295 295 289 291 299 301 302 302 301 295 297 300 303 306 304 301 302 306 303 295 292 289 285 280 277 275 270 259 253 250
287 287 289 291 290 287 285 285 288 289 290 292 293 295 296 293 288 287 286 293 297 297 294 295 300 302 301 299 301 303 297 291 296 290 290 289 286 282 281 273 269 268 262
287 288 290 288 289 291 287 281 286 279 285 294 293 293 297 299 295 300 302 300 299 295 302 297 295 296 296 295 295 295 296 298 300 292 292 295 295 290 284 277 268 261 258
290 289 289 288 289 289 292 293 288 288 295 296 297 297 297 297 302 304 305 306 308 308 308 301 300 299 300 301 303 302 300 300 298 297 295 293 297 296 292 284 273 266 265
286 289 289 287 290 290 291 296 300 300 296 296 297 300 300 302 303 306 307 308 309 311 304 295 294 296 296 297 298 298 298 297 296 294 293 293 295 295 293 288 280 274 267
288 292 294 287 286 288 289 291 294 298 302 298 297 300 302 303 305 308 310 312 307 303 285 287 288 290 291 292 293 294 295 295 294 293 291 289 289 291 293 288 281 273 267
290 289 288 285 285 287 290 291 292 292 294 297 299 300 303 305 306 305 308 299 295 293 289 286 284 286 287 288 290 290 290 291 291 291 291 288 286 285 286 284 282 281 274
286 291 296 294 291 292 292 291 291 292 293 295 297 300 303 302 299 299 295 285 286 288 287 285 284 283 284 284 286 287 288 288 289 288 287 288 288 286 283 282 279 274 265
286 290 295 295 290 290 290 289 289 290 292 294 294 297 301 303 301 299 296 289 285 286 286 284 283 282 280 280 281 282 283 285 285 284 284 283 282 283 281 276 273 270 265
285 285 286 287 290 290 291 289 290 291 292 293 295 298 301 299 294 293 291 289 283 280 280 280 280 276 273 274 276 278 280 281 280 279 279 279 276 275 274 273 271 266 260
284 287 290 290 290 292 295 291 291 291 292 293 296 298 297 294 293 293 292 291 286 284 280 278 279 277 272 268 265 266 272 276 275 272 275 277 274 271 268 266 266 264 255
285 288 291 292 293 292 292 292 293 294 293 294 296 296 295 293 292 292 292 291 288 286 282 279 278 276 274 276 273 267 265 269 269 268 265 267 269 268 264 261 259 255 252
290 291 292 292 293 293 293 294 295 296 296 297 297 297 296 295 294 293 292 290 289 288 285 282 280 279 278 276 276 274 277 280 279 275 264 262 262 260 258 257 257 255 251
291 292 292 292 292 292 293 294 295 296 296 296 296 296 295 294 294 293 292 291 291 291 288 285 279 278 279 281 279 280 284 283 281 280 273 264 259 258 256 256 255 253 252
Height
1517 1516 1515 1513 1512 1510 1508 1505 1503 1500 1497 1494 1490 1486 1483 1479 1475 1472 1468 1465 1461 1457 1454 1451 1447 1445 1441 1438 1435 1432 1429 1426 1415 1405 1407 1408 1407 1406 1405 1404 1402 1400 1399
1514 1513 1511 1510 1508 1505 1503 1500 1498 1494 1491 1487 1483 1479 1475 1471 1468 1464 1460 1456 1452 1448 1445 1441 1437 1434 1430 1427 1424 1421 1418 1416 1411 1399 1395 1397 1397 1396 1394 1392 1391 1389 1388
1510 1509 1507 1505 1503 1501 1498 1495 1492 1488 1484 1480 1476 1472 1468 1464 1460 1456 1451 1447 1443 1439 1436 1432 1427 1424 1419 1417 1413 1410 1407 1405 1402 1395 1387 1386 1386 1385 1383 1381 1380 1378 1377
1506 1505 1503 1501 1498 1495 1492 1489 1485 1481 1477 1473 1469 1464 1460 1456 1451 1447 1443 1438 1434 1430 1426 1422 1418 1415 1410 1407 1403 1400 1397 1394 1391 1387 1380 1377 1376 1375 1374 1371 1368 1367 1366
1502 1500 1498 1496 1493 1490 1486 1482 1478 1474 1470 1465 1461 1456 1453 1448 1444 1439 1434 1429 1425 1420 1416 1413 1409 1405 1402 1399 1395 1391 1389 1385 1381 1378 1373 1369 1367 1366 1365 1362 1359 1357 1355
1498 1495 1493 1490 1487 1484 1480 1476 1471 1467 1463 1458 1454 1449 1445 1441 1436 1432 1428 1422 1417 1412 1407 1403 1400 1396 1392 1389 1387 1384 1381 1377 1373 1370 1365 1362 1359 1358 1356 1354 1351 1348 1345
1493 1490 1488 1485 1481 1478 1473 1469 1465 1460 1455 1451 1446 1442 1437 1432 1428 1424 1419 1414 1408 1403 1399 1395 1391 1387 1384 1380 1376 1373 1371 1368 1366 1362 1357 1353 1351 1350 1348 1345 1343 1340 1337
1488 1485 1482 1479 1475 1471 1467 1462 1458 1453 1448 1443 1438 1434 1429 1424 1420 1415 1410 1405 1400 1395 1392 1388 1383 1379 1376 1372 1367 1363 1360 1357 1355 1352 1348 1344 1342 1340 1338 1336 1333 1330 1328
1483 1480 1477 1473 1469 1465 1460 1455 1451 1446 1441 1436 1431 1426 1421 1415 1412 1407 1402 1397 1391 1387 1384 1380 1376 1371 1367 1364 1360 1354 1350 1346 1345 1342 1339 1335 1333 1331 1329 1327 1324 1322 1318
1477 1474 1471 1467 1463 1458 1453 1449 1444 1439 1433 1428 1423 1419 1413 1407 1403 1399 1395 1390 1384 1379 1375 1371 1368 1364 1359 1356 1352 1346 1341 1337 1334 1330 1327 1325 1322 1320 1319 1318 1315 1313 1311
1472 1468 1465 1461 1457 1452 1447 1442 1437 1431 1426 1420 1415 1410 1405 1400 1395 1392 1388 1383 1377 1371 1366 1362 1358 1355 1351 1347 1343 1338 1333 1329 1325 1321 1317 1314 1312 1310 1308 1307 1306 1305 1303
1465 1462 1458 1454 1450 1445 1440 1435 1430 1424 1418 1412 1407 1401 1397 1393 1389 1384 1380 1377 1372 1366 1359 1355 1350 1347 1342 1338 1334 1329 1325 1321 1317 1313 1309 1306 1304 1301 1299 1298 1296 1295 1294
1459 1455 1451 1447 1442 1438 1433 1428 1422 1417 1411 1405 1399 1393 1387 1384 1380 1377 1372 1368 1363 1359 1352 1348 1343 1339 1334 1329 1325 1321 1318 1314 1310 1306 1303 1299 1297 1294 1292 1290 1288 1287 1286
1452 1448 1444 1439 1434 1430 1426 1421 1416 1410 1404 1398 1392 1386 1380 1375 1371 1367 1363 1359 1354 1349 1344 1339 1335 1330 1326 1322 1318 1314 1311 1308 1304 1301 1297 1294 1291 1288 1286 1284 1282 1280 1279
1445 1441 1436 1432 1427 1422 1417 1413 1408 1403 1399 1393 1386 1381 1375 1368 1364 1361 1357 1352 1347 1342 1337 1331 1327 1323 1318 1315 1311 1308 1305 1302 1299 1295 1292 1289 1286 1283 1281 1279 1277 1276 1274
1438 1433 1429 1424 1419 1414 1408 1403 1398 1395 1390 1386 1381 1376 1368 1363 1358 1354 1349 1345 1340 1335 1331 1325 1321 1317 1313 1310 1306 1303 1300 1297 1293 1290 1287 1284 1281 1279 1276 1274 1273 1271 1270
1431 1426 1421 1417 1411 1406 1401 1395 1387 1382 1380 1376 1372 1367 1362 1356 1351 1346 1341 1337 1332 1328 1324 1319 1315 1312 1308 1305 1301 1298 1295 1292 1289 1286 1283 1280 1277 1275 1272 1270 1268 1267 1266
1424 1419 1414 1409 1404 1399 1394 1389 1383 1375 1369 1364 1361 1358 1353 1348 1344 1339 1335 1330 1324 1321 1317 1313 1310 1306 1303 1300 1296 1293 1290 1287 1284 1281 1278 1276 1273 1271 1268 1266 1265 1263 1262
1416 1411 1406 1401 1396 1392 1386 1381 1376 1370 1364 1357 1352 1348 1345 1340 1336 1332 1328 1323 1318 1314 1311 1307 1304 1301 1297 1294 1291 1288 1285 1282 1279 1276 1274 1271 1269 1266 1264 1262 1260 1259 1258
1408 1404 1399 1394 1388 1383 1378 1373 1368 1363 1357 1351 1346 1341 1336 1332 1327 1323 1320 1316 1312 1308 1304 1301 1298 1294 1291 1288 1285 1282 1279 1276 1273 1271 1268 1266 1264 1262 1259 1257 1256 1254 1253
1400 1395 1391 1386 1381 1376 1371 1366 1361 1356 1350 1344 1339 1335 1331 1326 1321 1316 1312 1309 1305 1301 1298 1294 1291 1288 1285 1282 1279 1276 1273 1270 1267 1265 1262 1260 1258 1256 1254 1252 1251 1249 1248
1392 1387 1382 1377 1372 1368 1363 1358 1353 1348 1342 1337 1331 1327 1323 1319 1314 1309 1305 1301 1298 1295 1291 1288 1284 1281 1278 1275 1272 1269 1266 1263 1261 1258 1256 1254 1252 1250 1248 1246 1245 1244 1243
1384 1379 1374 1369 1364 1360 1355 1350 1345 1340 1334 1329 1324 1319 1315 1311 1307 1302 1298 1294 1291 1287 1284 1281 1277 1273 1271 1268 1265 1262 1259 1256 1254 1252 1249 1247 1245 1243 1241 1240 1238 1237 1236
1376 1371 1366 1361 1356 1351 1346 1341 1337 1332 1327 1322 1317 1312 1308 1303 1299 1295 1291 1287 1283 1280 1276 1273 1270 1266 1263 1260 1257 1254 1252 1249 1246 1244 1242 1240 1238 1236 1234 1233 1231 1230 1229
1368 1363 1358 1353 1348 1343 1338 1333 1329 1324 1319 1315 1310 1305 1300 1296 1291 1287 1283 1279 1276 1272 1268 1265 1262 1259 1255 1252 1249 1246 1244 1241 1239 1237 1234 1232 1230 1228 1227 1225 1224 1223 1222
1359 1355 1350 1345 1340 1335 1330 1325 1321 1316 1311 1307 1302 1297 1293 1288 1284 1279 1276 1272 1268 1264 1261 1257 1254 1251 1247 1244 1241 1238 1235 1233 1231 1229 1227 1224 1222 1220 1219 1217 1215 1214 1213